TimeCDT,TemperatureF,Dew PointF,Humidity,Sea Level PressureIn,VisibilityMPH,Wind Direction,Wind SpeedMPH,Gust SpeedMPH,PrecipitationIn,Events,Conditions,WindDirDegrees,DateUTC
12:54 AM,61.0,57.0,87,29.97,9.0,Calm,Calm,-,N/A,,Clear,0,2012-09-17 05:54:00
1:54 AM,60.1,57.9,93,29.98,6.0,Calm,Calm,-,N/A,,Clear,0,2012-09-17 06:54:00
2:54 AM,60.1,57.0,90,29.96,5.0,SSW,3.5,-,N/A,,Clear,210,2012-09-17 07:54:00
3:54 AM,59.0,57.0,93,29.94,4.0,Calm,Calm,-,N/A,,Clear,0,2012-09-17 08:54:00
4:38 AM,57.2,55.4,94,29.94,2.5,Calm,Calm,-,N/A,,Clear,0,2012-09-17 09:38:00
4:54 AM,57.9,57.0,97,29.94,1.2,Calm,Calm,-,N/A,,Partly Cloudy,0,2012-09-17 09:54:00
4:56 AM,57.2,57.2,100,29.94,0.8,South,3.5,-,N/A,,Mist,190,2012-09-17 09:56:00
5:10 AM,57.2,57.2,100,29.94,1.5,Calm,Calm,-,N/A,,Mostly Cloudy,0,2012-09-17 10:10:00
5:35 AM,57.2,55.4,94,29.94,1.0,Calm,Calm,-,N/A,,Mist,0,2012-09-17 10:35:00
5:42 AM,57.2,57.2,100,29.94,0.2,South,3.5,-,N/A,Fog,Fog,170,2012-09-17 10:42:00
5:54 AM,57.9,57.0,97,29.93,0.2,South,3.5,-,N/A,Fog,Fog,180,2012-09-17 10:54:00
6:54 AM,59.0,57.9,96,29.94,0.2,SSW,4.6,-,N/A,Fog,Fog,200,2012-09-17 11:54:00
7:54 AM,60.1,59.0,96,29.94,0.2,Calm,Calm,-,N/A,Fog,Fog,0,2012-09-17 12:54:00
8:54 AM,60.1,60.1,100,29.94,0.2,Calm,Calm,-,N/A,Fog,Fog,0,2012-09-17 13:54:00
9:18 AM,60.8,60.8,100,29.94,0.2,Calm,Calm,-,N/A,Fog,Fog,0,2012-09-17 14:18:00
9:52 AM,62.6,62.6,100,29.94,0.2,Calm,Calm,-,N/A,Fog,Fog,0,2012-09-17 14:52:00
9:54 AM,63.0,62.1,97,29.93,0.2,Calm,Calm,-,N/A,Fog,Fog,0,2012-09-17 14:54:00
10:05 AM,62.6,62.6,100,29.93,0.8,Calm,Calm,-,N/A,,Overcast,0,2012-09-17 15:05:00
10:13 AM,62.6,62.6,100,29.93,1.5,Calm,Calm,-,N/A,,Overcast,0,2012-09-17 15:13:00
10:23 AM,64.4,62.6,94,29.93,3.0,Calm,Calm,-,N/A,,Overcast,0,2012-09-17 15:23:00
10:54 AM,66.0,64.0,93,29.91,3.0,SSE,4.6,-,N/A,,Overcast,160,2012-09-17 15:54:00
11:39 AM,66.2,64.4,94,29.90,4.0,South,4.6,-,N/A,,Mostly Cloudy,180,2012-09-17 16:39:00
11:54 AM,68.0,64.0,87,29.90,3.0,SSW,5.8,-,N/A,,Mostly Cloudy,210,2012-09-17 16:54:00
12:11 PM,68.0,62.6,83,29.90,2.5,SW,8.1,-,N/A,,Haze,230,2012-09-17 17:11:00
12:38 PM,69.8,64.4,83,29.88,7.0,South,9.2,-,N/A,,Partly Cloudy,190,2012-09-17 17:38:00
12:54 PM,70.0,64.0,81,29.86,9.0,South,5.8,-,N/A,,Partly Cloudy,180,2012-09-17 17:54:00
1:54 PM,71.1,62.1,73,29.85,10.0,SW,8.1,-,N/A,,Overcast,220,2012-09-17 18:54:00
2:54 PM,73.9,62.1,66,29.81,10.0,SW,8.1,-,N/A,,Partly Cloudy,220,2012-09-17 19:54:00
3:54 PM,73.9,61.0,64,29.78,10.0,SW,10.4,-,N/A,,Partly Cloudy,230,2012-09-17 20:54:00
4:54 PM,73.9,61.0,64,29.76,10.0,SW,10.4,-,N/A,,Partly Cloudy,220,2012-09-17 21:54:00
5:54 PM,73.9,60.1,62,29.76,10.0,WSW,9.2,-,N/A,,Mostly Cloudy,240,2012-09-17 22:54:00
6:08 PM,66.2,60.8,83,29.79,8.0,North,10.4,35.7,0.00,Rain-Thunderstorm,Thunderstorms and Rain,350,2012-09-17 23:08:00
6:14 PM,64.4,60.8,88,29.80,2.0,North,9.2,19.6,0.01,Rain-Thunderstorm,Thunderstorms and Rain,350,2012-09-17 23:14:00
6:35 PM,62.6,62.6,100,29.81,5.0,NNW,4.6,-,0.11,Rain-Thunderstorm,Light Thunderstorms and Rain,330,2012-09-17 23:35:00
6:46 PM,64.4,60.8,88,29.81,9.0,NNW,6.9,-,0.11,,Overcast,330,2012-09-17 23:46:00
6:54 PM,64.0,61.0,90,29.81,8.0,North,9.2,-,0.11,Rain,Light Rain,350,2012-09-17 23:54:00
7:54 PM,60.1,57.0,90,29.83,10.0,NNW,6.9,-,0.02,Rain,Light Rain,330,2012-09-18 00:54:00
8:54 PM,57.9,55.0,90,29.85,10.0,NW,8.1,-,0.00,,Mostly Cloudy,320,2012-09-18 01:54:00
9:38 PM,57.2,55.4,94,29.85,10.0,NW,8.1,-,0.00,Rain,Light Rain,320,2012-09-18 02:38:00
9:51 PM,57.2,55.4,94,29.86,10.0,NNW,9.2,-,0.00,,Overcast,330,2012-09-18 02:51:00
9:54 PM,57.9,55.0,90,29.86,10.0,NW,11.5,18.4,0.00,,Overcast,320,2012-09-18 02:54:00
10:54 PM,55.0,52.0,89,29.87,10.0,NNW,9.2,18.4,N/A,,Overcast,330,2012-09-18 03:54:00
11:07 PM,53.6,50.0,88,29.87,10.0,NNW,9.2,21.9,N/A,,Mostly Cloudy,340,2012-09-18 04:07:00
11:42 PM,53.6,48.2,82,29.88,10.0,NNW,9.2,-,N/A,,Scattered Clouds,340,2012-09-18 04:42:00
11:54 PM,52.0,48.0,86,29.88,10.0,Variable,5.8,-,N/A,,Clear,0,2012-09-18 04:54:00